Starlink 11444

operational
NORAD ID: 62409 Int'l Des: 2024-249 Owner: SPXS Country: US Constellation: starlink
LEOCIRCULAR

关于 Starlink 11444

正在加载描述...

实时位置

正在加载3D地球...

即将过境

高度历史

Altitude vs Time

uPlot chart will show altitude changes over time

两行轨道根数

1 62409U 24249A 25257.98727387 .00220286 00000-0 16694-2 0 9992
2 62409 42.9984 147.0518 0001087 240.5576 119.5183 15.70922365 41845
Epoch: Sep 14, 2025 • Age: 18 hours

当前状态

高度 356.0 km
速度 7.70 km/s
星下点 26.51°N, 93.05°W
发射日期 Dec 23, 2024
运行时间 0.7 years
类型 internet

技术详情

分类 Payload
质量 960.00 kg
干质量 910.00 kg
总质量 960.00 kg
长度 0.30 m
直径 4.10 m
跨度 29.00 m
形状 Box + pan
制造商 SPXS
平台类型 Starlink V2MD
阶段状态 In Orbit
所有者/国家 SPXS/US

大型星座

Loading constellations...